When you browse on this site, cookies collect data to enhance your experience and personalize the content and advertising you see.
Visit our Privacy Policy to learn more. By continuing to use the site, you agree to this use of cookies and data.
  • în România
  • Lista ţărilor
  • Pe 7 zile
  • Temperatura apei
  • Hartă satelitară
  • Meteo pe hartă
  • Widget-uri
  • user-avatar
    Intrare

    Meteo pe oră la Lezhe

    Astăzi, 22 Ianuarie, Marţi

    Timp Temperatura Precipitaţii Vânt Presiune Umiditate
    00:00 +4°C° 0 mm 3 m/s 735 mmHg 79%
    01:00 +4°C° 0 mm 3 m/s 735 mmHg 78%
    02:00 +4°C° 0.1 mm 3 m/s 734 mmHg 78%
    03:00 +4°C° 0.1 mm 3 m/s 734 mmHg 78%
    04:00 +4°C° 0.1 mm 3 m/s 733 mmHg 78%
    05:00 +4°C° 0.1 mm 3 m/s 733 mmHg 79%
    06:00 +4°C° 0.1 mm 3 m/s 733 mmHg 79%
    07:00 +5°C° 0 mm 3 m/s 732 mmHg 78%
    08:00 +5°C° 0.9 mm 3 m/s 732 mmHg 80%
    09:00 +5°C° 0.9 mm 3 m/s 732 mmHg 82%
    10:00 +6°C° 0.9 mm 2 m/s 732 mmHg 84%
    11:00 +6°C° 1.3 mm 2 m/s 731 mmHg 84%
    12:00 +6°C° 1.3 mm 2 m/s 730 mmHg 85%
    13:00 +5°C° 0 mm 3 m/s 730 mmHg 86%
    14:00 +5°C° 1.6 mm 3 m/s 729 mmHg 87%
    15:00 +5°C° 1.6 mm 3 m/s 729 mmHg 88%
    16:00 +5°C° 1.6 mm 3 m/s 728 mmHg 88%
    17:00 +5°C° 1 mm 3 m/s 728 mmHg 87%
    18:00 +5°C° 1 mm 3 m/s 728 mmHg 87%
    19:00 +5°C° 1 mm 3 m/s 728 mmHg 86%
    20:00 +7°C° 0.6 mm 3 m/s 728 mmHg 87%
    21:00 +7°C° 0.6 mm 3 m/s 728 mmHg 87%
    22:00 +7°C° 0.6 mm 3 m/s 728 mmHg 88%
    23:00 +7°C° 0.7 mm 3 m/s 728 mmHg 89%

    Mâine, 23 Ianuarie, Miercuri

    Timp Temperatura Precipitaţii Vânt Presiune Umiditate
    00:00 +7°C° 0.7 mm 3 m/s 728 mmHg 91%
    01:00 +6°C° 0.7 mm 2 m/s 728 mmHg 93%
    02:00 +5°C° 0.6 mm 3 m/s 728 mmHg 92%
    03:00 +5°C° 0.6 mm 3 m/s 728 mmHg 92%
    04:00 +4°C° 0.6 mm 3 m/s 727 mmHg 92%
    05:00 +5°C° 0.6 mm 3 m/s 727 mmHg 90%
    06:00 +5°C° 0.6 mm 3 m/s 727 mmHg 89%
    07:00 +5°C° 0.6 mm 3 m/s 727 mmHg 87%
    08:00 +5°C° 0.5 mm 3 m/s 727 mmHg 84%
    09:00 +7°C° 0.5 mm 2 m/s 727 mmHg 81%
    10:00 +8°C° 0.5 mm 2 m/s 727 mmHg 77%
    11:00 +8°C° 0.4 mm 3 m/s 726 mmHg 75%
    12:00 +9°C° 0.4 mm 3 m/s 726 mmHg 73%
    13:00 +10°C° 0.4 mm 3 m/s 725 mmHg 70%
    14:00 +9°C° 0.2 mm 2 m/s 725 mmHg 73%
    15:00 +9°C° 0.2 mm 1 m/s 724 mmHg 76%
    16:00 +8°C° 0.2 mm 0 m/s 724 mmHg 79%
    17:00 +8°C° 0 mm 1 m/s 724 mmHg 80%
    18:00 +8°C° 0 mm 1 m/s 723 mmHg 81%
    19:00 +7°C° 0 mm 1 m/s 723 mmHg 81%
    20:00 +7°C° 0 mm 1 m/s 723 mmHg 81%
    21:00 +6°C° 0 mm 2 m/s 722 mmHg 80%
    22:00 +6°C° 0 mm 2 m/s 722 mmHg 80%
    23:00 +6°C° 0.1 mm 2 m/s 722 mmHg 80%

    Poimâine, 24 Ianuarie, Joi

    Timp Temperatura Precipitaţii Vânt Presiune Umiditate
    00:00 +5°C° 0.1 mm 2 m/s 721 mmHg 81%
    01:00 +5°C° 0.1 mm 2 m/s 721 mmHg 81%
    02:00 +5°C° 0.5 mm 2 m/s 720 mmHg 82%
    03:00 +5°C° 0.5 mm 2 m/s 720 mmHg 84%
    04:00 +5°C° 0.5 mm 2 m/s 719 mmHg 85%
    05:00 +5°C° 0.5 mm 2 m/s 719 mmHg 85%
    06:00 +5°C° 0.5 mm 2 m/s 719 mmHg 86%
    07:00 +6°C° 0.5 mm 1 m/s 719 mmHg 86%
    08:00 +6°C° 0.2 mm 1 m/s 719 mmHg 85%
    09:00 +7°C° 0.2 mm 1 m/s 720 mmHg 83%
    10:00 +7°C° 0.2 mm 1 m/s 720 mmHg 82%
    11:00 +7°C° 0.2 mm 1 m/s 720 mmHg 82%
    12:00 +8°C° 0.2 mm 1 m/s 719 mmHg 81%
    13:00 +8°C° 0.2 mm 1 m/s 719 mmHg 81%
    14:00 +8°C° 0.2 mm 1 m/s 719 mmHg 83%
    15:00 +7°C° 0.2 mm 1 m/s 719 mmHg 84%
    16:00 +7°C° 0.2 mm 1 m/s 719 mmHg 86%
    17:00 +7°C° 0.1 mm 1 m/s 720 mmHg 86%
    18:00 +6°C° 0.1 mm 1 m/s 720 mmHg 85%
    19:00 +5°C° 0.1 mm 2 m/s 720 mmHg 85%
    20:00 +5°C° 0 mm 2 m/s 720 mmHg 83%
    21:00 +4°C° 0 mm 3 m/s 720 mmHg 81%
    22:00 +3°C° 0 mm 4 m/s 720 mmHg 79%
    23:00 +3°C° 0 mm 3 m/s 720 mmHg 79%

    25 Ianuarie, Vineri

    Timp Temperatura Precipitaţii Vânt Presiune Umiditate
    00:00 +3°C° 0 mm 3 m/s 720 mmHg 78%
    01:00 +2°C° 0 mm 3 m/s 720 mmHg 77%
    02:00 +2°C° 0 mm 3 m/s 720 mmHg 77%
    03:00 +2°C° 0 mm 3 m/s 720 mmHg 77%
    04:00 +2°C° 0 mm 3 m/s 720 mmHg 77%
    05:00 +2°C° 0 mm 3 m/s 720 mmHg 77%
    06:00 +2°C° 0 mm 3 m/s 720 mmHg 78%
    07:00 +2°C° 0 mm 3 m/s 720 mmHg 78%
    08:00 +3°C° 0 mm 4 m/s 721 mmHg 76%
    09:00 +4°C° 0 mm 4 m/s 721 mmHg 74%
    10:00 +4°C° 0 mm 4 m/s 721 mmHg 72%
    11:00 +5°C° 0 mm 5 m/s 721 mmHg 69%
    12:00 +6°C° 0 mm 5 m/s 721 mmHg 67%
    13:00 +6°C° 0 mm 5 m/s 721 mmHg 64%
    14:00 +6°C° 0 mm 5 m/s 720 mmHg 65%
    15:00 +5°C° 0 mm 5 m/s 720 mmHg 67%
    16:00 +5°C° 0 mm 5 m/s 720 mmHg 68%
    17:00 +3°C° 0 mm 5 m/s 721 mmHg 69%
    18:00 +3°C° 0 mm 5 m/s 721 mmHg 70%
    19:00 +2°C° 0 mm 5 m/s 721 mmHg 71%
    20:00 +2°C° 0.1 mm 5 m/s 722 mmHg 71%
    21:00 +2°C° 0.1 mm 5 m/s 722 mmHg 71%
    22:00 +1°C° 0.1 mm 5 m/s 722 mmHg 71%
    23:00 +1°C° 0 mm 4 m/s 722 mmHg 71%

    26 Ianuarie, Sâmbătă

    Timp Temperatura Precipitaţii Vânt Presiune Umiditate
    00:00 +1°C° 0 mm 4 m/s 722 mmHg 71%
    01:00 +1°C° 0 mm 4 m/s 723 mmHg 70%
    02:00 +1°C° 0 mm 4 m/s 723 mmHg 71%
    03:00 +1°C° 0 mm 4 m/s 723 mmHg 71%
    04:00 +1°C° 0 mm 3 m/s 723 mmHg 72%
    05:00 +1°C° 0 mm 3 m/s 723 mmHg 72%
    06:00 +1°C° 0 mm 3 m/s 724 mmHg 71%
    07:00 +1°C° 0 mm 3 m/s 724 mmHg 71%
    08:00 +2°C° 0 mm 3 m/s 724 mmHg 68%
    09:00 +3°C° 0 mm 3 m/s 725 mmHg 65%
    10:00 +4°C° 0 mm 3 m/s 725 mmHg 62%
    11:00 +5°C° 0 mm 4 m/s 725 mmHg 61%
    12:00 +5°C° 0 mm 4 m/s 725 mmHg 60%
    13:00 +6°C° 0 mm 4 m/s 725 mmHg 59%
    14:00 +6°C° 0 mm 4 m/s 725 mmHg 61%
    15:00 +5°C° 0 mm 4 m/s 726 mmHg 63%
    16:00 +5°C° 0 mm 3 m/s 726 mmHg 66%
    17:00 +4°C° 0 mm 3 m/s 726 mmHg 68%
    18:00 +3°C° 0 mm 3 m/s 727 mmHg 70%
    19:00 +2°C° 0 mm 3 m/s 727 mmHg 72%
    20:00 +2°C° 0 mm 3 m/s 727 mmHg 72%
    21:00 +2°C° 0 mm 3 m/s 728 mmHg 72%
    22:00 +2°C° 0 mm 3 m/s 728 mmHg 73%
    23:00 +2°C° 0 mm 3 m/s 728 mmHg 73%

    27 Ianuarie, Duminică

    Timp Temperatura Precipitaţii Vânt Presiune Umiditate
    00:00 +2°C° 0 mm 3 m/s 728 mmHg 72%
    01:00 +2°C° 0 mm 3 m/s 728 mmHg 72%
    02:00 +2°C° 0 mm 3 m/s 728 mmHg 72%
    03:00 +2°C° 0 mm 3 m/s 728 mmHg 73%
    04:00 +2°C° 0 mm 3 m/s 728 mmHg 73%
    05:00 +2°C° 0 mm 3 m/s 728 mmHg 73%
    06:00 +2°C° 0 mm 3 m/s 728 mmHg 73%
    07:00 +2°C° 0 mm 3 m/s 728 mmHg 73%
    08:00 +2°C° 0 mm 3 m/s 728 mmHg 70%
    09:00 +3°C° 0 mm 3 m/s 728 mmHg 67%
    10:00 +4°C° 0 mm 3 m/s 728 mmHg 65%
    11:00 +5°C° 0 mm 3 m/s 728 mmHg 63%
    12:00 +6°C° 0 mm 2 m/s 728 mmHg 62%
    13:00 +7°C° 0 mm 2 m/s 728 mmHg 61%
    14:00 +7°C° 0 mm 2 m/s 728 mmHg 63%
    15:00 +6°C° 0 mm 2 m/s 728 mmHg 65%
    16:00 +6°C° 0 mm 2 m/s 728 mmHg 68%
    17:00 +5°C° 0 mm 2 m/s 728 mmHg 70%
    18:00 +4°C° 0 mm 2 m/s 729 mmHg 73%
    19:00 +3°C° 0 mm 2 m/s 729 mmHg 76%
    20:00 +3°C° 0 mm 2 m/s 729 mmHg 76%
    21:00 +3°C° 0 mm 2 m/s 730 mmHg 76%
    22:00 +2°C° 0 mm 2 m/s 730 mmHg 76%
    23:00 +2°C° 0 mm 2 m/s 730 mmHg 76%
    Arată mai mult